Location: Creston
(40.9870°N, 81.8938°W)
Time: 18:29:58
(UTC+00:00)

Meteor 2-21 - Pass Details

Date: 29 October 2020
Orbit: 933 x 967 km, 82.5° (Epoch: 23 November)

Event Time Altitude Azimuth Distance (km) Brightness Sun altitude
Rises 22:41:39 0° 352° (N) 3,643 7.4 -3.6°
Reaches altitude 10° 22:44:10 10° 353° (N) 2,688 6.7 -4.0°
Maximum altitude 22:50:19 85° 82° (E) 956 4.5 -5.2°
Drops below altitude 10° 22:56:23 10° 172° (S) 2,647 6.9 -6.3°
Sets 22:58:51 0° 172° (S) 3,584 7.5 -6.7°
